カタログに戻る

STARLINK-31412

運用中通信VLEO
NORAD 59410·PAYLOAD·🇺🇸 United States

打ち上げ Apr 5, 2024 から Cape Canaveral Space Force Station

Loading…

次のパス (今後24時間)

TLE

最新Source: CelesTrak SupGP

元期: Sep 15, 2026, 02:33 UTC

1 59410C 24064N   26258.10673611 -.00015330  00000+0 -55515-3 0  2588
2 59410  43.0002  66.4101 0001355 272.6208 137.6215 15.27592764    13

AllMySatでSTARLINK-31412をリアルタイム追跡

Download on the App Store